Fitchburg, MA

11:11 AM EDT on October 19, 2017 (GMT -0400)
Fitchburg Municipal

Weather History for KFIT - May, 2013

Change the Weather History Date:

Wednesday, May 22, 2013

  Actual Average (KORH) Record (KORH)
Temperature  
Mean Temperature 62 °F -  
Max Temperature 73 °F 69 °F 90 °F (1992)
Min Temperature 51 °F 49 °F 32 °F (1936)
Degree Days  
Heating Degree Days 3    
Growing Degree Days 12 (Base 50)    
Moisture  
Dew Point 54 °F    
Average Humidity 87    
Maximum Humidity 100    
Minimum Humidity 68    
Precipitation  
Precipitation 0.76 in - - ()
Sea Level Pressure  
Sea Level Pressure 29.94 in    
Wind  
Wind Speed 5 mph (ESE)    
Max Wind Speed 15 mph    
Max Gust Speed 30 mph    
Visibility 8 miles    
Events Rain , Thunderstorm    
Averages and records for this station are not official NWS values.
T = Trace of Precipitation, MM = Missing Value Source: NWS Daily Summary

Daily Weather History Graph

Daily Weather History Graph

Search for Another Location

Airport or City:

Trip Planner

Search our weather history database for the weather conditions in past years. The results will help you decide how hot, cold, wet, or windy it might be!

Date:

Astronomy

May. 22, 2013 Rise Set
Actual Time 5:18 AM EDT 8:09 PM EDT
Civil Twilight 4:45 AM EDT 8:42 PM EDT
Nautical Twilight 4:03 AM EDT 9:24 PM EDT
Astronomical Twilight 3:15 AM EDT 10:13 PM EDT
Moon 5:25 PM EDT (5/22) 3:24 AM EDT (5/22)
Length of Visible Light 15h 57m
Length of Day
14h 51m
Waxing Gibbous, 91% of the Moon is Illuminated
May 22
Waxing Gibbous
May 25
Full
May 31
Last Quarter
Jun 8
New
Jun 16
First Quarter

Hourly Weather History & Observations

Time (EDT) Temp. Dew Point Humidity Pressure Visibility Wind Dir Wind Speed Gust Speed Precip Events Conditions
12:13 AM 51.8 °F 48.2 °F 88% 30.08 in 5.0 mi North 9.2 mph - 0.12 in Rain , Thunderstorm Rain
12:24 AM 51.8 °F 48.2 °F 88% 30.04 in 4.0 mi Variable 3.5 mph - 0.20 in Rain , Thunderstorm Heavy Rain
12:52 AM 51.1 °F 48.9 °F 92% 29.99 in 6.0 mi Variable 4.6 mph - 0.31 in Rain , Thunderstorm Light Rain
1:06 AM 51.8 °F 48.2 °F 88% 29.98 in 7.0 mi SE 6.9 mph - 0.02 in Rain , Thunderstorm Light Thunderstorms and Rain
1:24 AM 51.8 °F 48.2 °F 88% 29.96 in 8.0 mi SE 4.6 mph - 0.05 in Rain , Thunderstorm Rain
1:41 AM 51.8 °F 48.2 °F 88% 29.94 in 10.0 mi SSE 8.1 mph - 0.06 in Rain , Thunderstorm Light Rain
1:52 AM 51.1 °F 48.9 °F 92% 29.94 in 10.0 mi South 3.5 mph - 0.06 in Rain , Thunderstorm Light Rain
2:03 AM 51.8 °F 48.2 °F 88% 29.95 in 10.0 mi Calm Calm - 0.00 in   Overcast
2:52 AM 52.0 °F 50.0 °F 93% 29.95 in 10.0 mi SSE 4.6 mph - 0.00 in   Overcast
3:19 AM 51.8 °F 48.2 °F 88% 30.05 in 10.0 mi WNW 15.0 mph 29.9 mph N/A Thunderstorm Overcast
3:29 AM 53.6 °F 50.0 °F 88% 29.98 in 2.5 mi Variable 4.6 mph - 0.09 in Rain , Thunderstorm Heavy Rain
3:33 AM 53.6 °F 50.0 °F 88% 29.97 in 2.5 mi Calm Calm - 0.11 in Rain , Thunderstorm Heavy Thunderstorms and Rain
3:44 AM 53.6 °F 50.0 °F 88% 29.96 in 4.0 mi Calm Calm - 0.14 in Rain , Thunderstorm Light Thunderstorms and Rain
3:52 AM 53.1 °F 51.1 °F 93% 29.95 in 9.0 mi NE 3.5 mph - 0.15 in Rain Light Rain
4:33 AM 51.8 °F 51.8 °F 100% 29.94 in 9.0 mi SSE 4.6 mph - 0.08 in Rain Light Rain
4:52 AM 52.0 °F 50.0 °F 93% 29.93 in 10.0 mi SE 4.6 mph - 0.10 in Rain Light Rain
5:29 AM 51.8 °F 51.8 °F 100% 29.90 in 10.0 mi SE 9.2 mph - 0.02 in   Overcast
5:37 AM 51.8 °F 51.8 °F 100% 29.91 in 10.0 mi SSE 8.1 mph - 0.02 in   Overcast
5:52 AM 53.1 °F 51.1 °F 93% 29.91 in 10.0 mi SE 6.9 mph - 0.02 in Rain Light Rain
5:59 AM 53.6 °F 51.8 °F 94% 29.90 in 10.0 mi SSE 8.1 mph - 0.00 in Rain Light Rain
6:35 AM 53.6 °F 51.8 °F 94% 29.92 in 10.0 mi Calm Calm - 0.00 in   Mostly Cloudy
6:52 AM 54.0 °F 52.0 °F 93% 29.92 in 10.0 mi East 4.6 mph - 0.00 in Rain Light Rain
7:47 AM 55.4 °F 51.8 °F 88% 29.91 in 10.0 mi Calm Calm - 0.00 in   Mostly Cloudy
7:52 AM 55.9 °F 52.0 °F 87% 29.92 in 10.0 mi Calm Calm - 0.00 in   Mostly Cloudy
8:05 AM 57.2 °F 53.6 °F 88% 29.92 in 10.0 mi Calm Calm - N/A   Overcast
8:52 AM 57.9 °F 54.0 °F 87% 29.93 in 10.0 mi Calm Calm - N/A   Overcast
9:52 AM 60.1 °F 55.0 °F 83% 29.93 in 10.0 mi Variable 3.5 mph - N/A   Overcast
10:15 AM 60.8 °F 55.4 °F 82% 29.93 in 10.0 mi SE 5.8 mph - N/A   Overcast
10:52 AM 62.1 °F 57.0 °F 84% 29.94 in 10.0 mi SSE 5.8 mph - N/A   Overcast
11:39 AM 64.4 °F 57.2 °F 77% 29.94 in 10.0 mi SE 5.8 mph - N/A   Overcast
11:52 AM 64.9 °F 57.9 °F 78% 29.94 in 10.0 mi Calm Calm - N/A   Overcast
12:14 PM 66.2 °F 59.0 °F 78% 29.93 in 10.0 mi SSE 4.6 mph - N/A   Scattered Clouds
12:52 PM 70.0 °F 61.0 °F 73% 29.93 in 10.0 mi SE 5.8 mph - 0.01 in   Partly Cloudy
1:52 PM 73.0 °F 62.1 °F 68% 29.91 in 10.0 mi East 8.1 mph - N/A   Scattered Clouds
2:52 PM 71.1 °F 62.1 °F 73% 29.90 in 10.0 mi East 6.9 mph - N/A   Scattered Clouds
3:52 PM 70.0 °F 62.1 °F 76% 29.90 in 10.0 mi East 6.9 mph - N/A   Clear
4:43 PM 69.8 °F 62.6 °F 78% 29.89 in 10.0 mi East 6.9 mph - N/A   Mostly Cloudy
4:52 PM 70.0 °F 62.1 °F 76% 29.89 in 10.0 mi East 4.6 mph - N/A   Scattered Clouds
5:23 PM 69.8 °F 62.6 °F 78% 29.88 in 10.0 mi Variable 6.9 mph - N/A   Mostly Cloudy
5:52 PM 66.9 °F 60.1 °F 79% 29.90 in 10.0 mi ENE 8.1 mph - N/A   Overcast
6:42 PM 62.6 °F 57.2 °F 82% 29.91 in 10.0 mi NE 9.2 mph - 0.00 in Rain , Thunderstorm Light Thunderstorms and Rain
6:52 PM 62.1 °F 57.0 °F 84% 29.94 in 10.0 mi Calm Calm - 0.00 in Rain , Thunderstorm Light Thunderstorms and Rain
7:09 PM 60.8 °F 57.2 °F 88% 29.95 in 2.0 mi North 8.1 mph - 0.11 in Rain , Thunderstorm Heavy Thunderstorms and Rain
7:22 PM 59.0 °F 57.2 °F 94% 29.93 in 8.0 mi East 10.4 mph - 0.11 in Rain , Thunderstorm Light Thunderstorms and Rain
7:32 PM 59.0 °F 55.4 °F 88% 29.93 in 9.0 mi East 5.8 mph - 0.11 in   Overcast
7:52 PM 57.9 °F 55.9 °F 93% 29.94 in 9.0 mi Variable 3.5 mph - 0.11 in   Overcast
8:52 PM 57.0 °F 55.0 °F 93% 29.95 in 8.0 mi ENE 5.8 mph - N/A   Overcast
9:13 PM 57.2 °F 55.4 °F 94% 29.95 in 6.0 mi NE 5.8 mph - N/A   Overcast
9:52 PM 57.0 °F 55.0 °F 93% 29.96 in 5.0 mi NE 3.5 mph - N/A   Overcast
10:52 PM 55.9 °F 54.0 °F 93% 29.96 in 3.0 mi Variable 3.5 mph - N/A   Overcast
11:05 PM 55.4 °F 53.6 °F 94% 29.95 in 2.5 mi ENE 3.5 mph - N/A   Overcast
11:21 PM 55.4 °F 53.6 °F 94% 29.94 in 3.0 mi ESE 3.5 mph - N/A   Overcast
11:52 PM 55.9 °F 54.0 °F 93% 29.94 in 3.0 mi ESE 4.6 mph - N/A   Overcast